COSMOS 2576

导读 | 豆包AI

COSMOS 2576是俄罗斯(CIS)于2024年5月16日从普列谢茨克航天发射场,由联盟2-1b火箭送入太空的军用卫星,进入445公里高度、倾角97.25度的太阳同步轨道。俄方未公开其具体任务,外界猜测其可能为军用测绘卫星,美国则指控该卫星疑似具备反卫星能力,且与美国侦察卫星共轨,可对美方航天器进行抵近侦察。

Basic Information
目录编号:
59773
目录名称:
COSMOS 2576
国际标识:
2024-092A
轨道中心:
EARTH
卫星名称:
COSMOS 2576
卫星全名:
--
卫星状态:
在轨 (已飞行714 天)
发射日期:
2024-05-16 UTC
国别 :
俄罗斯(独联体) (CIS)
星等 :
--
Orbit Information
数据来源 国际轨道数据
星历时间: 2026-04-30T01:15:42+0800
20小时前
查看轨道信息
半长轴: 6886.08km
偏心率: 0.0013173
轨道倾角: 97.433°
近地点辐角 174.907°
升交点赤经 236.415°
平近点角 185.230°
近地点: 498.871km
远地点: 517.015km
周期: 94.780分钟
每日圈数: 15.193041
Detailed Information
使用方式:
暂无
2D Orbit Map
3D Orbit Map
Orbit Altitude Analysis Chart
Orbit Inclination Analysis Chart
Orbit Comprehensive Analysis Chart
View Comprehensive Chart